Weather History for Newport, AR

Change the Weather History Date:

Monday, March 10, 2014

  Actual Average (KJBR) Record (KJBR)
Temperature  
Mean Temperature 50 °F 48 °F  
Max Temperature 68 °F 58 °F 84 °F (1901)
Min Temperature 33 °F 38 °F 19 °F (1998)
Degree Days  
Heating Degree Days 14 17  
Month to date heating degree days 182  
Since 1 July heating degree days 3138  
Cooling Degree Days 0 0  
Month to date cooling degree days 0  
Year to date cooling degree days 0  
Moisture  
Dew Point 41 °F    
Average Humidity 82    
Maximum Humidity 100    
Minimum Humidity 42    
Precipitation  
Precipitation 0.00 in 0.13 in 2.94 in (1964)
Month to date precipitation 1.30  
Year to date precipitation 8.45  
Snow  
Snow 0.00 in - 0.30 in (1949)
Month to date snowfall  
Since 1 July snowfall  
Snow Depth -    
Sea Level Pressure  
Sea Level Pressure 30.03 in    
Wind  
Wind Speed 8 mph (SSW)    
Max Wind Speed 17 mph    
Max Gust Speed -    
Visibility 6 miles    
Events      
T = Trace of Precipitation, MM = Missing Value Source: NWS Daily Summary

Daily Weather History Graph

Daily Weather History Graph

Search for Another Location

Airport:

Trip Planner

Search our weather history database for the weather conditions in past years. The results will help you decide how hot, cold, wet, or windy it might be!

Date:

Astronomy

Mar. 10, 2014 Rise Set
Actual Time 7:22 AM CDT 7:07 PM CDT
Civil Twilight 6:56 AM CDT 7:33 PM CDT
Nautical Twilight 6:27 AM CDT 8:02 PM CDT
Astronomical Twilight 5:57 AM CDT 8:32 PM CDT
Moon 1:59 PM CDT (3/10) 3:26 AM CDT (3/10)
Length of Visible Light 12h 36m
Length of Day
11h 45m
Waxing Gibbous, 70% of the Moon is Illuminated
Mar 10
Waxing Gibbous
Mar 16
Full
Mar 23
Last Quarter
Mar 30
New
Apr 7
First Quarter

Hourly Weather History & Observations

Time (CDT) Temp. Windchill Dew Point Humidity Pressure Visibility Wind Dir Wind Speed Gust Speed Precip Events Conditions
12:56 AM 37.9 °F 32.7 °F 34.9 °F 89% 30.16 in 5.0 mi SSW 6.9 mph - N/A   Clear
1:56 AM 36.9 °F 33.1 °F 34.9 °F 93% 30.15 in 4.0 mi SSW 4.6 mph - N/A   Clear
2:56 AM 36.0 °F 30.3 °F 34.0 °F 93% 30.14 in 4.0 mi SSW 6.9 mph - N/A   Clear
3:56 AM 34.9 °F 27.7 °F 34.0 °F 97% 30.11 in 3.0 mi SSW 9.2 mph - N/A   Clear
4:06 AM 35.6 °F - 33.8 °F 93% 30.10 in 2.5 mi Calm Calm - N/A   Clear
4:35 AM 35.6 °F 29.2 °F 35.6 °F 100% 30.09 in 3.0 mi SSW 8.1 mph - N/A   Clear
4:56 AM 34.9 °F 29.9 °F 34.0 °F 97% 30.10 in 2.5 mi SSW 5.8 mph - N/A   Clear
5:20 AM 35.6 °F 29.9 °F 35.6 °F 100% 30.10 in 3.0 mi SSW 6.9 mph - N/A   Clear
5:56 AM 36.0 °F 31.1 °F 34.9 °F 96% 30.10 in 3.0 mi SSW 5.8 mph - N/A   Clear
6:04 AM 35.6 °F 30.7 °F 33.8 °F 93% 30.10 in 2.5 mi SSW 5.8 mph - N/A   Clear
6:56 AM 34.9 °F 29.0 °F 34.0 °F 97% 30.09 in 2.0 mi SSE 6.9 mph - N/A   Clear
7:09 AM 33.8 °F 28.6 °F 33.8 °F 100% 30.09 in 1.8 mi SSW 5.8 mph - N/A   Clear
7:21 AM 35.6 °F 31.7 °F 33.8 °F 93% 30.09 in 1.0 mi SSW 4.6 mph - N/A   Clear
7:56 AM 34.9 °F 26.6 °F 34.0 °F 97% 30.10 in 1.0 mi SSW 11.5 mph - N/A   Clear
8:39 AM 41.0 °F 34.7 °F 39.2 °F 93% 30.10 in 1.2 mi SSW 10.4 mph - N/A   Clear
8:48 AM 42.8 °F 36.2 °F 41.0 °F 93% 30.10 in 1.8 mi SSW 12.7 mph - N/A   Clear
8:56 AM 43.0 °F 36.8 °F 41.0 °F 93% 30.10 in 1.8 mi SSW 11.5 mph - N/A   Clear
9:03 AM 44.6 °F 38.1 °F 42.8 °F 93% 30.10 in 2.0 mi SSW 13.8 mph - N/A   Clear
9:56 AM 47.8 °F - 43.9 °F 86% 30.09 in 3.0 mi SSW 12.7 mph - N/A   Clear
10:56 AM 52.9 °F - 45.9 °F 77% 30.07 in 7.0 mi SSW 9.2 mph - N/A   Clear
11:56 AM 57.9 °F - 47.8 °F 69% 30.04 in 10.0 mi South 10.4 mph - N/A   Clear
12:56 PM 61.9 °F - 48.9 °F 62% 30.02 in 10.0 mi SSW 16.1 mph - N/A   Clear
1:56 PM 63.0 °F - 48.9 °F 60% 29.98 in 10.0 mi South 17.3 mph - N/A   Clear
2:56 PM 65.8 °F - 48.9 °F 54% 29.93 in 10.0 mi SSW 16.1 mph - N/A   Clear
3:56 PM 68.0 °F - 45.0 °F 43% 29.90 in 10.0 mi South 15.0 mph - N/A   Clear
4:56 PM 68.0 °F - 43.9 °F 42% 29.88 in 10.0 mi South 15.0 mph - N/A   Clear
5:56 PM 64.9 °F - 48.9 °F 56% 29.86 in 10.0 mi SSW 17.3 mph - N/A   Clear
6:56 PM 59.9 °F - 48.9 °F 67% 29.86 in 10.0 mi South 17.3 mph - N/A   Clear
7:56 PM 54.0 °F - 46.9 °F 77% 29.87 in 10.0 mi SSE 8.1 mph - N/A   Clear
8:56 PM 52.0 °F - 45.0 °F 77% 29.88 in 10.0 mi South 8.1 mph - N/A   Clear
9:56 PM 50.0 °F - 43.9 °F 79% 29.88 in 10.0 mi South 8.1 mph - N/A   Clear
10:56 PM 48.9 °F - 43.9 °F 83% 29.88 in 10.0 mi SSW 9.2 mph - N/A   Clear
11:56 PM 48.9 °F - 43.0 °F 80% 29.86 in 10.0 mi SSW 8.1 mph - N/A   Clear